Location: Cheching
(60.0667°N, 164.2167°W)
Time: 22:08:42
(UTC+00:00)

NOAA 15 - Pass Details

Date: 28 January 2021
Orbit: 798 x 812 km, 98.7° (Epoch: 07 March)

Event Time Altitude Azimuth Distance (km) Brightness Sun altitude
Rises 04:25:06 0° 140° (SE) 3,311 7.6 -10.3°
Reaches altitude 10° 04:27:28 10° 135° (SE) 2,386 6.8 -10.5°
Maximum altitude 04:32:33 51° 61° (ENE) 1,013 4.8 -11.1°
Drops below altitude 10° 04:37:42 10° 347° (NNW) 2,409 7.1 -11.7°
Sets 04:40:06 0° 343° (NNW) 3,346 7.8 -12.0°
